Weather History for LGIR - March, 2013

Change the Weather History Date:

Friday, March 15, 2013

  Actual Average Record
Temperature  
Mean Temperature 62 °F -  
Max Temperature 73 °F 65 °F 73 °F (2013)
Min Temperature 50 °F 52 °F 44 °F (2009)
Degree Days  
Heating Degree Days 4    
Growing Degree Days 12 (Base 50)    
Moisture  
Dew Point 47 °F    
Average Humidity 62    
Maximum Humidity 82    
Minimum Humidity 44    
Precipitation  
Precipitation 0.02 in 0.06 in - ()
Sea Level Pressure  
Sea Level Pressure 29.61 in    
Wind  
Wind Speed 11 mph ()    
Max Wind Speed 23 mph    
Max Gust Speed -    
Visibility 6.0 miles    
Events Rain    
Averages and records for this station are not official NWS values.
T = Trace of Precipitation, MM = Missing Value Source: Averaged Metar Reports

Daily Weather History Graph

Daily Weather History Graph

Search for Another Location

Airport or City:

Trip Planner

Search our weather history database for the weather conditions in past years. The results will help you decide how hot, cold, wet, or windy it might be!

Date:

Astronomy

Mar. 15, 2013 Rise Set
Actual Time 6:30 AM EET 6:26 PM EET
Civil Twilight 6:04 AM EET 6:52 PM EET
Nautical Twilight 5:35 AM EET 7:21 PM EET
Astronomical Twilight 5:05 AM EET 7:51 PM EET
Moon 8:17 AM EET (3/15) 10:12 PM EET (3/15)
Length of Visible Light 12h 47m
Length of Day
11h 56m
Waxing Crescent, 13% of the Moon is Illuminated
Mar 15
Waxing Crescent
Mar 19
First Quarter
Mar 27
Full
Apr 3
Last Quarter
Apr 10
New

Hourly Weather History & Observations

Time (EET) Temp. Dew Point Humidity Pressure Visibility Wind Dir Wind Speed Gust Speed Precip Events Conditions
12:20 AM 64.4 °F 53.6 °F 68% 29.50 in 2.5 mi South 11.5 mph - N/A   Overcast
12:50 AM 64.4 °F 53.6 °F 68% 29.53 in 3.1 mi North 13.8 mph - N/A   Overcast
1:20 AM 64.4 °F 53.6 °F 68% 29.53 in 3.7 mi NNW 13.8 mph - N/A   Overcast
1:50 AM 62.6 °F 53.6 °F 72% 29.53 in 5.0 mi NW 16.1 mph - N/A   Overcast
2:00 AM 63 °F 54 °F 64% 29.54 in 5 mi NW 16.1 mph - -   Widespread Dust
2:20 AM 62.6 °F 53.6 °F 72% 29.53 in 5.0 mi WNW 19.6 mph - N/A   Overcast
2:50 AM 60.8 °F 51.8 °F 72% 29.53 in 6.2 mi NW 12.7 mph - N/A   Overcast
3:20 AM 60.8 °F 51.8 °F 72% 29.53 in 6.2 mi NW 12.7 mph - N/A   Overcast
4:50 AM 60.8 °F 55.4 °F 82% 29.53 in 6.2 mi WNW 12.7 mph - N/A   Overcast
5:20 AM 60.8 °F 55.4 °F 82% 29.53 in 6.2 mi WNW 12.7 mph - N/A   Overcast
5:50 AM 57.2 °F 51.8 °F 82% 29.53 in 6.2 mi WNW 11.5 mph - N/A   Mostly Cloudy
6:20 AM 57.2 °F 51.8 °F 82% 29.53 in 6.2 mi WNW 11.5 mph - N/A   Mostly Cloudy
6:50 AM 57.2 °F 48.2 °F 72% 29.56 in 6.2 mi Variable 3.5 mph - N/A   Mostly Cloudy
7:20 AM 57.2 °F 48.2 °F 72% 29.56 in 6.2 mi Variable 3.5 mph - N/A   Mostly Cloudy
7:50 AM 57.2 °F 44.6 °F 63% 29.56 in 6.2 mi South 10.4 mph - N/A   Mostly Cloudy
8:00 AM 57 °F 44 °F 53% 29.59 in 6 mi South 10.4 mph - -   Scattered Clouds
8:20 AM 57.2 °F 44.6 °F 63% 29.56 in 6.2 mi South 9.2 mph - N/A   Mostly Cloudy
8:50 AM 59.0 °F 46.4 °F 63% 29.59 in 6.2 mi South 6.9 mph - N/A   Mostly Cloudy
9:20 AM 60.8 °F 48.2 °F 63% 29.59 in 6.2 mi WSW 12.7 mph - N/A   Scattered Clouds
9:50 AM 62.6 °F 46.4 °F 55% 29.59 in 6.2 mi West 9.2 mph - N/A   Scattered Clouds
10:20 AM 62.6 °F 46.4 °F 55% 29.59 in 6.2 mi SW 11.5 mph - N/A   Scattered Clouds
10:50 AM 62.6 °F 44.6 °F 52% 29.59 in 6.2 mi North 9.2 mph - N/A   Scattered Clouds
11:20 AM 62.6 °F 44.6 °F 52% 29.59 in 6.2 mi North 9.2 mph - N/A   Scattered Clouds
11:50 AM 64.4 °F 46.4 °F 52% 29.59 in 6.2 mi Variable 3.5 mph - N/A   Scattered Clouds
12:20 PM 64.4 °F 46.4 °F 52% 29.59 in 6.2 mi SW 16.1 mph - N/A   Scattered Clouds
12:50 PM 62.6 °F 46.4 °F 55% 29.62 in 6.2 mi SW 13.8 mph - N/A   Scattered Clouds
1:20 PM 62.6 °F 46.4 °F 55% 29.62 in 6.2 mi SW 10.4 mph - N/A   Scattered Clouds
1:50 PM 64.4 °F 48.2 °F 56% 29.62 in 6.2 mi NNW 13.8 mph - N/A   Scattered Clouds
2:00 PM 64 °F 49 °F 47% 29.62 in 9 mi NNW 13.8 mph - -   Partly Cloudy
2:20 PM 64.4 °F 48.2 °F 56% 29.62 in 6.2 mi NW 20.7 mph - N/A   Scattered Clouds
2:50 PM 62.6 °F 44.6 °F 52% 29.62 in 6.2 mi NW 21.9 mph - N/A   Scattered Clouds
3:20 PM 62.6 °F 44.6 °F 52% 29.62 in 6.2 mi WNW 19.6 mph - N/A   Scattered Clouds
3:50 PM 60.8 °F 46.4 °F 59% 29.62 in 6.2 mi WNW 18.4 mph - N/A   Scattered Clouds
4:20 PM 60.8 °F 46.4 °F 59% 29.62 in 6.2 mi WNW 23.0 mph - N/A   Scattered Clouds
4:50 PM 59.0 °F 44.6 °F 59% 29.62 in 6.2 mi WNW 20.7 mph - N/A   Scattered Clouds
5:20 PM 59.0 °F 44.6 °F 59% 29.62 in 6.2 mi WNW 12.7 mph - N/A   Scattered Clouds
5:50 PM 60.8 °F 41.0 °F 48% 29.65 in 6.2 mi SSW 4.6 mph - N/A   Scattered Clouds
6:20 PM 60.8 °F 41.0 °F 48% 29.65 in 6.2 mi WSW 8.1 mph - N/A   Scattered Clouds
6:50 PM 59.0 °F 41.0 °F 51% 29.68 in 6.2 mi SSW 9.2 mph - N/A   Mostly Cloudy
7:20 PM 59.0 °F 41.0 °F 51% 29.68 in 6.2 mi SSW 6.9 mph - N/A   Mostly Cloudy
7:50 PM 57.2 °F 41.0 °F 55% 29.71 in 6.2 mi SSW 11.5 mph - N/A   Mostly Cloudy
8:00 PM 57 °F 41 °F 44% 29.72 in 6 mi SSW 11.5 mph - -   Mostly Cloudy
8:20 PM 53.6 °F 42.8 °F 67% 29.74 in 6.2 mi SSW 10.4 mph - N/A   Scattered Clouds
8:50 PM 53.6 °F 42.8 °F 67% 29.74 in 6.2 mi South 3.5 mph - N/A   Partly Cloudy
9:20 PM 53.6 °F 42.8 °F 67% 29.74 in 6.2 mi South 6.9 mph - N/A   Partly Cloudy
9:50 PM 51.8 °F 41.0 °F 67% 29.74 in 6.2 mi SSW 4.6 mph - N/A   Partly Cloudy
10:50 PM 50.0 °F 42.8 °F 76% 29.74 in 6.2 mi Variable 2.3 mph - N/A   Scattered Clouds
11:20 PM 50.0 °F 42.8 °F 76% 29.74 in 6.2 mi West 4.6 mph - N/A   Scattered Clouds
11:50 PM 50.0 °F 44.6 °F 82% 29.77 in 6.2 mi WSW 10.4 mph - N/A Rain Light Rain